Location: Coopersdale
(40.3556°N, 78.9372°W)
Time: 02:54:16
(UTC+00:00)

Tiros 1 despin weight - Pass Details

Date: 25 January 2021
Orbit: 593 x 642 km, 48.2° (Epoch: 02 March)

Event Time Altitude Azimuth Distance (km) Brightness Sun altitude
Rises 01:07:39 0° 299° (WNW) 2,846 ? -30.9°
Reaches altitude 10° 01:09:58 10° 297° (WNW) 1,935 ? -31.4°
Enters shadow 01:12:04 27° 291° (WNW) 1,151 ? -31.8°
Maximum altitude 01:14:22 69° 214° (SW) 635 - -32.2°
Drops below altitude 10° 01:18:44 10° 131° (SE) 1,915 - -33.0°
Sets 01:21:00 0° 129° (SE) 2,813 - -33.5°
